EW7112 Weather Reports


time (UTC)temp
C
wind
direction
speed
KPH
gust
KPH
rain 1hr
cm
rain 24hr
cm
rain mn
cm
humidity
%
barometer
mb
20260507170055 19 131 1.6 9.7 0.00 0.00 0.00 54 998.3
20260507164612 18 63 1.6 6.4 0.00 0.00 0.00 57 998.5
20260507163050 18 100 1.6 11.3 0.00 0.00 0.00 59 998.5
20260507161552 18 284 3.2 8.0 0.00 0.00 0.00 57 998.4
20260507160048 18 108 3.2 11.3 0.00 0.00 0.00 60 998.5
20260507154545 17 360 3.2 11.3 0.00 0.18 0.00 61 998.6
20260507153043 17 53 3.2 12.9 0.00 0.18 0.00 60 998.7
20260507151540 17 1 4.8 12.9 0.00 0.18 0.00 64 998.9
20260507150038 16 278 3.2 9.7 0.00 0.18 0.00 67 999.0
20260507144534 16 52 1.6 8.0 0.00 0.18 0.00 69 999.1
20260507143054 16 93 1.6 6.4 0.00 0.18 0.00 71 999.2
20260507141538 15 77 3.2 8.0 0.00 0.18 0.00 74 999.3
20260507140026 14 11 1.6 6.4 0.00 0.18 0.00 76 999.4
20260507134523 13 274 1.6 6.4 0.00 0.18 0.00 78 999.5
20260507133021 13 6 0.0 4.8 0.00 0.18 0.00 80 999.7
20260507131520 12 325 1.6 4.8 0.00 0.18 0.00 81 999.5
20260507130031 12 316 0.0 3.2 0.00 0.18 0.00 83 999.5
20260507124515 12 322 0.0 3.2 0.00 0.18 0.00 84 999.2
20260507123014 11 283 0.0 3.2 0.00 0.18 0.00 86 999.2
20260507121512 11 257 0.0 3.2 0.00 0.18 0.00 86 999.2
20260507120009 11 257 0.0 1.6 0.00 0.18 0.00 86 998.7
20260507114506 11 257 0.0 1.6 0.00 0.18 0.00 85 998.6
20260507113005 11 240 0.0 3.2 0.00 0.18 0.00 86 998.5
20260507111503 11 313 0.0 4.8 0.00 0.18 0.00 86 998.6
20260507110001 11 305 1.6 4.8 0.00 0.18 0.00 86 998.4
20260507104604 11 322 0.0 3.2 0.00 0.18 0.00 86 998.2
20260507103056 11 15 0.0 3.2 0.00 0.18 0.00 86 998.0
20260507101556 11 15 0.0 0.0 0.00 0.18 0.00 86 997.6
20260507100058 12 15 0.0 0.0 0.00 0.18 0.00 85 997.5
20260507094550 12 15 0.0 0.0 0.00 0.18 0.00 84 997.1
20260507093048 12 15 0.0 1.6 0.00 0.18 0.00 84 997.0
20260507091545 12 15 0.0 1.6 0.00 0.18 0.00 83 996.9
20260507090055 13 15 0.0 3.2 0.00 0.18 0.00 82 996.8
20260507084550 13 57 0.0 1.6 0.00 0.18 0.00 82 996.9
20260507083040 13 8 0.0 3.2 0.00 0.18 0.00 81 996.9
20260507081545 13 16 0.0 3.2 0.00 0.18 0.00 81 996.9
20260507080036 13 43 0.0 6.4 0.00 0.18 0.00 81 996.7
20260507074534 13 25 0.0 4.8 0.00 0.18 0.00 80 996.5
20260507073032 13 1 3.2 8.0 0.00 0.18 0.00 79 996.4
20260507071535 13 34 1.6 12.9 0.00 0.18 0.00 78 996.3
20260507070034 13 18 3.2 9.7 0.00 0.18 0.00 78 996.3
20260507064548 14 11 1.6 6.4 0.00 0.18 0.00 77 996.4
20260507063033 14 23 1.6 6.4 0.00 0.18 0.00 76 996.2
20260507061530 13 49 1.6 6.4 0.00 0.18 0.00 76 996.0
20260507060024 14 1 0.0 3.2 0.00 0.18 0.00 76 996.0
20260507054522 14 360 0.0 6.4 0.00 0.18 0.00 75 996.0
20260507053022 14 6 1.6 4.8 0.00 0.18 0.00 74 995.8
20260507051519 14 139 1.6 8.0 0.00 0.18 0.00 73 995.9
20260507050032 15 68 1.6 8.0 0.00 0.18 0.00 72 995.9
20260507044513 15 360 4.8 12.9 0.00 0.18 0.18 71 996.1
20260507043013 15 359 3.2 19.3 0.00 0.18 0.18 70 996.0
20260507041522 15 51 3.2 11.3 0.00 0.18 0.18 70 996.2
20260507040013 15 342 3.2 12.9 0.00 0.18 0.18 70 996.2
20260507034512 15 40 3.2 14.5 0.00 0.18 0.18 70 996.2
20260507033011 15 32 4.8 11.3 0.00 0.18 0.18 70 996.3
20260507031510 15 9 3.2 17.7 0.00 0.18 0.18 70 996.2
20260507030017 16 103 4.8 12.9 0.00 0.18 0.18 70 996.0
20260507024512 16 333 6.4 14.5 0.00 0.18 0.18 69 995.7
20260507023005 16 329 4.8 19.3 0.00 0.18 0.18 69 995.3
20260507021502 16 62 4.8 14.5 0.00 0.18 0.18 70 994.9
20260507020002 16 56 6.4 20.9 0.00 0.18 0.18 70 994.8
20260507014602 16 23 4.8 16.1 0.00 0.18 0.18 70 994.5
20260507013100 16 6 4.8 16.1 0.00 0.18 0.18 70 994.0
20260507011600 16 360 6.4 12.9 0.00 0.18 0.18 70 993.6
20260507010111 16 359 4.8 16.1 0.00 0.18 0.18 70 993.5
20260507004559 17 1 3.2 12.9 0.00 0.18 0.18 69 993.4
20260507003058 17 360 3.2 12.9 0.00 0.18 0.18 70 993.3
20260507001608 17 23 4.8 14.5 0.00 0.18 0.18 70 993.2
20260507000057 17 316 6.4 12.9 0.00 0.18 0.18 69 992.9
20260506234559 17 359 3.2 9.7 0.00 0.18 0.18 69 992.7
20260506233059 17 2 6.4 14.5 0.00 0.18 0.18 69 992.6
20260506231609 18 48 1.6 17.7 0.00 0.18 0.18 68 992.3
20260506230110 18 359 0.0 9.7 0.00 0.18 0.18 69 992.3
20260506224553 18 16 3.2 11.3 0.00 0.18 0.18 69 992.2
20260506223051 17 39 4.8 12.9 0.00 0.18 0.18 69 992.2
20260506221609 17 1 6.4 12.9 0.00 0.18 0.18 69 992.0
20260506220104 17 37 4.8 9.7 0.00 0.18 0.18 69 992.2
20260506214548 17 1 1.6 8.0 0.00 0.18 0.18 70 992.3
20260506213100 17 288 0.0 12.9 0.00 0.18 0.18 71 992.1
20260506211540 16 359 3.2 9.7 0.00 0.18 0.18 70 992.4
20260506210046 16 5 4.8 12.9 0.00 0.18 0.18 69 992.5
20260506204537 16 46 4.8 14.5 0.00 0.18 0.18 70 992.5
20260506203034 16 23 3.2 9.7 0.00 0.18 0.18 69 992.7
20260506201538 16 27 1.6 14.5 0.00 0.18 0.18 71 992.6
20260506200031 16 15 3.2 8.0 0.00 0.18 0.18 72 993.1
20260506194530 15 11 3.2 11.3 0.00 0.18 0.18 72 993.3
20260506193029 15 12 3.2 12.9 0.00 0.18 0.18 73 993.7
20260506191530 15 19 3.2 9.7 0.00 0.18 0.18 73 993.4
20260506190031 15 360 0.0 11.3 0.00 0.18 0.18 74 993.5
20260506184531 14 40 3.2 12.9 0.00 0.18 0.18 75 993.4
20260506183034 14 11 6.4 16.1 0.00 0.18 0.18 75 992.0
20260506181527 14 33 4.8 14.5 0.00 0.18 0.18 76 992.1
20260506180031 13 96 4.8 20.9 0.00 0.18 0.18 78 992.8
20260506174528 13 23 3.2 14.5 0.00 0.18 0.18 80 992.7
20260506173025 12 80 3.2 19.3 0.00 0.18 0.18 81 992.9
20260506171534 12 344 6.4 20.9 0.00 0.18 0.18 83 992.6